Waupaca, WI

12:40 AM CST on January 24, 2018 (GMT -0600)
Waupaca Municipal

Weather History for KPCZ - August, 2013

Change the Weather History Date:

Sunday, August 4, 2013

  Actual Average Record
Temperature  
Mean Temperature 63 °F -  
Max Temperature 76 °F 81 °F 98 °F (1988)
Min Temperature 50 °F 58 °F 41 °F (1951)
Degree Days  
Heating Degree Days 2    
Growing Degree Days 13 (Base 50)    
Moisture  
Dew Point 50 °F    
Average Humidity 65    
Maximum Humidity 93    
Minimum Humidity 32    
Precipitation  
Precipitation 0.00 in - - ()
Sea Level Pressure  
Sea Level Pressure 30.19 in    
Wind  
Wind Speed 3 mph (NE)    
Max Wind Speed 6 mph    
Max Gust Speed -    
Visibility 10 miles    
Events      
Averages and records for this station are not official NWS values.
T = Trace of Precipitation, MM = Missing Value Source: NWS Daily Summary

Daily Weather History Graph

Daily Weather History Graph

Search for Another Location

Airport or City:

Trip Planner

Search our weather history database for the weather conditions in past years. The results will help you decide how hot, cold, wet, or windy it might be!

Date:

Astronomy

Aug. 04, 2013 Rise Set
Actual Time 5:46 AM CDT 8:16 PM CDT
Civil Twilight 5:14 AM CDT 8:49 PM CDT
Nautical Twilight 4:33 AM CDT 9:30 PM CDT
Astronomical Twilight 3:46 AM CDT 10:16 PM CDT
Moon 3:47 AM CDT (8/4) 6:39 PM CDT (8/4)
Length of Visible Light 15h 35m
Length of Day
14h 29m
Waning Crescent, 4% of the Moon is Illuminated
Aug 4
Waning Crescent
Aug 6
New
Aug 14
First Quarter
Aug 20
Full
Aug 28
Last Quarter

Hourly Weather History & Observations

Time (CDT) Temp. Dew Point Humidity Pressure Visibility Wind Dir Wind Speed Gust Speed Precip Events Conditions
12:15 AM 59.2 °F 51.1 °F 74% 30.18 in 10.0 mi North 3.5 mph - N/A   Clear
12:35 AM 57.7 °F 50.9 °F 78% 30.18 in 10.0 mi North 3.5 mph - N/A   Clear
12:55 AM 57.4 °F 50.9 °F 79% 30.18 in 10.0 mi NNW 3.5 mph - N/A   Clear
1:15 AM 55.4 °F 50.2 °F 83% 30.19 in 10.0 mi NNW 4.6 mph - N/A   Clear
1:35 AM 55.4 °F 50.7 °F 84% 30.19 in 10.0 mi North 4.6 mph - N/A   Clear
1:55 AM 54.5 °F 50.4 °F 86% 30.20 in 10.0 mi NNW 4.6 mph - N/A   Clear
2:15 AM 54.7 °F 50.5 °F 86% 30.20 in 10.0 mi NNW 4.6 mph - N/A   Clear
2:35 AM 54.5 °F 50.5 °F 86% 30.21 in 10.0 mi North 4.6 mph - N/A   Clear
2:55 AM 54.7 °F 50.4 °F 85% 30.21 in 10.0 mi North 3.5 mph - N/A   Clear
3:15 AM 53.6 °F 49.6 °F 86% 30.21 in 10.0 mi NNW 4.6 mph - N/A   Clear
3:35 AM 53.6 °F 50.0 °F 88% 30.21 in 10.0 mi North 3.5 mph - N/A   Clear
3:55 AM 53.4 °F 49.8 °F 88% 30.21 in 10.0 mi North 4.6 mph - N/A   Clear
4:15 AM 52.0 °F 48.7 °F 89% 30.21 in 10.0 mi North 3.5 mph - N/A   Clear
4:35 AM 52.2 °F 49.5 °F 91% 30.21 in 10.0 mi Calm Calm - N/A   Clear
4:55 AM 51.8 °F 49.1 °F 90% 30.21 in 10.0 mi Calm Calm - N/A   Clear
5:15 AM 50.0 °F 47.7 °F 92% 30.21 in 10.0 mi Calm Calm - N/A   Clear
5:35 AM 50.7 °F 48.4 °F 92% 30.21 in 10.0 mi Calm Calm - N/A   Clear
5:55 AM 50.0 °F 47.8 °F 92% 30.21 in 5.0 mi Calm Calm - N/A   Clear
6:15 AM 50.2 °F 48.0 °F 92% 30.21 in 10.0 mi Calm Calm - N/A   Clear
6:35 AM 51.8 °F 49.6 °F 92% 30.22 in 10.0 mi Calm Calm - N/A   Clear
6:55 AM 53.6 °F 51.6 °F 93% 30.23 in 10.0 mi Calm Calm - N/A   Clear
7:15 AM 54.5 °F 52.0 °F 91% 30.23 in 10.0 mi Calm Calm - N/A   Clear
7:35 AM 55.6 °F 52.0 °F 88% 30.24 in 10.0 mi Calm Calm - N/A   Clear
7:55 AM 58.5 °F 52.9 °F 82% 30.24 in 10.0 mi Calm Calm - N/A   Clear
8:15 AM 60.8 °F 53.1 °F 76% 30.25 in 10.0 mi Calm Calm - N/A   Clear
8:35 AM 63.1 °F 53.2 °F 70% 30.25 in 10.0 mi North 3.5 mph - N/A   Clear
8:55 AM 64.2 °F 53.2 °F 67% 30.25 in 10.0 mi NNE 3.5 mph - N/A   Clear
9:15 AM 66.0 °F 52.7 °F 62% 30.25 in 10.0 mi Calm Calm - N/A   Clear
9:35 AM 67.3 °F 51.6 °F 57% 30.25 in 10.0 mi Calm Calm - N/A   Clear
9:55 AM 69.4 °F 51.4 °F 53% 30.25 in 10.0 mi Calm Calm - N/A   Clear
10:15 AM 69.3 °F 49.1 °F 49% 30.25 in 10.0 mi East 3.5 mph - N/A   Clear
10:35 AM 70.0 °F 50.4 °F 50% 30.25 in 10.0 mi East 3.5 mph - N/A   Clear
10:55 AM 71.2 °F 49.3 °F 46% 30.25 in 10.0 mi Calm Calm - N/A   Clear
11:15 AM 71.1 °F 48.0 °F 44% 30.24 in 10.0 mi Calm Calm - N/A   Scattered Clouds
11:35 AM 72.3 °F 48.0 °F 42% 30.24 in 10.0 mi NW 5.8 mph - N/A   Mostly Cloudy
11:55 AM 72.5 °F 46.8 °F 40% 30.23 in 10.0 mi Calm Calm - N/A   Scattered Clouds
12:15 PM 72.5 °F 47.5 °F 41% 30.22 in 10.0 mi Calm Calm - N/A   Mostly Cloudy
12:35 PM 72.3 °F 46.4 °F 40% 30.22 in 10.0 mi Calm Calm - N/A   Mostly Cloudy
12:55 PM 72.9 °F 47.1 °F 40% 30.21 in 10.0 mi NE 4.6 mph - N/A   Overcast
1:15 PM 72.7 °F 47.1 °F 40% 30.20 in 10.0 mi ENE 4.6 mph - N/A   Overcast
1:35 PM 73.4 °F 45.7 °F 37% 30.20 in 10.0 mi NNE 3.5 mph - N/A   Mostly Cloudy
1:55 PM 73.9 °F 44.6 °F 35% 30.19 in 10.0 mi ESE 3.5 mph - N/A   Scattered Clouds
2:15 PM 75.7 °F 43.9 °F 32% 30.19 in 10.0 mi NE 4.6 mph - N/A   Scattered Clouds
2:35 PM 74.5 °F 47.5 °F 38% 30.19 in 10.0 mi ENE 5.8 mph - N/A   Mostly Cloudy
2:55 PM 74.8 °F 45.9 °F 36% 30.19 in 10.0 mi NNE 3.5 mph - N/A   Mostly Cloudy
3:15 PM 76.1 °F 46.0 °F 34% 30.18 in 10.0 mi East 4.6 mph - N/A   Scattered Clouds
3:35 PM 75.2 °F 43.7 °F 32% 30.17 in 10.0 mi Calm Calm - N/A   Scattered Clouds
3:55 PM 75.2 °F 46.4 °F 36% 30.17 in 10.0 mi East 4.6 mph - N/A   Mostly Cloudy
4:15 PM 75.7 °F 45.3 °F 34% 30.17 in 10.0 mi NNW 4.6 mph - N/A   Overcast
4:35 PM 76.3 °F 48.2 °F 37% 30.16 in 10.0 mi ENE 5.8 mph - N/A   Mostly Cloudy
4:55 PM 74.7 °F 47.7 °F 38% 30.16 in 10.0 mi East 5.8 mph - N/A   Scattered Clouds
5:15 PM 76.3 °F 46.9 °F 35% 30.16 in 10.0 mi ESE 4.6 mph - N/A   Mostly Cloudy
5:35 PM 73.8 °F 47.5 °F 39% 30.16 in 10.0 mi ENE 3.5 mph - N/A   Mostly Cloudy
5:55 PM 73.4 °F 46.9 °F 39% 30.14 in 10.0 mi SE 3.5 mph - N/A   Overcast
6:15 PM 73.0 °F 48.2 °F 41% 30.14 in 10.0 mi SE 4.6 mph - N/A   Overcast
6:35 PM 72.9 °F 48.6 °F 42% 30.13 in 10.0 mi ESE 4.6 mph - N/A   Mostly Cloudy
6:55 PM 73.2 °F 48.7 °F 42% 30.13 in 10.0 mi SE 4.6 mph - N/A   Scattered Clouds
7:15 PM 70.9 °F 51.1 °F 49% 30.13 in 10.0 mi SSE 3.5 mph - N/A   Scattered Clouds
7:35 PM 69.8 °F 51.3 °F 52% 30.13 in 10.0 mi SE 3.5 mph - N/A   Scattered Clouds
7:55 PM 68.7 °F 51.4 °F 54% 30.13 in 10.0 mi Calm Calm - N/A   Mostly Cloudy
8:15 PM 65.7 °F 54.7 °F 68% 30.13 in 10.0 mi Calm Calm - N/A   Scattered Clouds
8:35 PM 64.0 °F 54.5 °F 71% 30.12 in 10.0 mi Calm Calm - N/A   Scattered Clouds
8:55 PM 62.6 °F 54.1 °F 74% 30.12 in 10.0 mi Calm Calm - N/A   Scattered Clouds
9:15 PM 61.3 °F 54.0 °F 77% 30.13 in 10.0 mi Calm Calm - N/A   Clear
9:35 PM 59.5 °F 53.8 °F 81% 30.12 in 10.0 mi Calm Calm - N/A   Clear
9:55 PM 58.3 °F 54.1 °F 86% 30.12 in 10.0 mi Calm Calm - N/A   Clear
10:15 PM 57.9 °F 54.5 °F 88% 30.12 in 10.0 mi Calm Calm - N/A   Clear
10:35 PM 56.7 °F 53.1 °F 88% 30.12 in 10.0 mi Calm Calm - N/A   Clear
10:55 PM 55.6 °F 52.2 °F 88% 30.13 in 10.0 mi ESE 3.5 mph - N/A   Clear
11:15 PM 58.3 °F 54.5 °F 87% 30.13 in 10.0 mi SSE 4.6 mph - N/A   Clear
11:35 PM 58.8 °F 53.8 °F 83% 30.13 in 10.0 mi Calm Calm - N/A   Clear
11:55 PM 58.6 °F 54.5 °F 86% 30.12 in 10.0 mi Calm Calm - N/A   Clear